Regional Weather Roundup
Issued by NWS Midland/Odessa, TX

Current Version | Previous Version | Text Only | Print | Product List | Glossary On
Versions: 1 2 3 4 5 6 7 8 9 10 11 12 13 14 15 16 17 18 19 20 21 22 23 24 25 26 27 28 29 30 31 32 33 34 35 36 37 38 39 40 41 42 43 44 45 46 47 48 49 50
000
ASUS44 KMAF 211110
RWRMAF
MIDLAND AREA WEATHER ROUNDUP
NATIONAL WEATHER SERVICE MIDLAND TX
500 AM CST SUN JAN 21 2018

...IN SOUTHWEST TEXAS AND SOUTHEAST NEW MEXICO...

CITY           SKY/WX    TMP DP  RH WIND       PRES   REMARKS
ALPINE         CLEAR     54  20  26 SW13      29.93R
ANDREWS        FAIR      42  42 100 SW8       29.80S WCI  36
ARTESIA        CLEAR     52  27  37 SW12      29.79R
BIG SPRING     PTCLDY    46  44  95 S12       29.82S
CARLSBAD       CLEAR     38  20  48 E6        29.79R WCI  33
DRYDEN           N/A    N/A N/A N/A E3        29.84S
FORT STOCKTON  CLEAR     53  28  38 S15       29.82S
GUAD PASS      MOCLDY    47  24  40 W30       29.87R WCI  38
HOBBS          CLEAR     36  27  69 SW9       29.79S WCI  29
LAMESA         FAIR      41  39  93 S17       29.79F WCI  32
MARFA          CLOUDY    29  21  72 NE3       29.93S
MIDLAND AIRPK    N/A     46  43  90 S9        29.82R FOG
MIDLAND INTL   CLEAR     44  41  89 S12       29.81S FOG     WCI  38
ODESSA         CLEAR     40  38  93 S10       29.80F WCI  33
PECOS          CLEAR     35  21  56 CALM      29.81R
PRESIDIO       FAIR      46  22  38 NW5       29.88S
SEMINOLE       CLEAR     37  30  74 SW6       29.80S WCI  32
SNYDER         CLOUDY    45  44  97 S8        29.81S
WINK           CLEAR     37  37 100 CALM      29.80R
$$
...OTHER STATIONS IN TEXAS...

CITY           SKY/WX    TMP DP  RH WIND       PRES   REMARKS
ABILENE        PTCLDY    54  51  90 S23G33    29.79F
AMARILLO       PTCLDY    42  17  36 S13       29.71F WCI  35
AUSTIN         DRIZZLE   64  64 100 S9        29.93S
BROWNSVILLE    CLOUDY    67  66  97 S10       29.94F
CORPUS CHRISTI DRIZZLE   65  65 100 S14       29.93F
DALLAS FTW     MOCLDY    65  59  81 S17       29.88R
DEL RIO        CLOUDY    52  52 100 SE7       29.86S FOG
EL PASO        MOCLDY    47  28  47 W25G36    29.92R WCI  39
HOUSTON INT    CLOUDY    67  65  93 S13       29.99F
LUBBOCK        PTCLDY    45  30  55 SW13      29.76S WCI  39
SAN ANGELO       N/A    N/A N/A N/A MISG      29.83F
SAN ANTONIO    CLOUDY    63  60  90 S8        29.93F
WACO           MOCLDY    59  57  93 S13       29.91S
WICHITA FALLS  PTCLDY    50  49  96 S15       29.68F
$$
...OTHER LOCATIONS IN NEW MEXICO...

CITY           SKY/WX    TMP DP  RH WIND       PRES   REMARKS
ALAMOGORDO     CLOUDY    46  25  42 S8        29.94R
ALBUQUERQUE    CLOUDY    33  25  72 W13       29.85F WCI  24
CANNON AFB     CLEAR     43  20  40 W13       29.77R WCI  36
CLOVIS         CLEAR     40  20  44 SW13      29.74S WCI  32
HOLLOMAN AFB   CLOUDY    47  23  38 SW21      29.94R WCI  39
ROSWELL        CLEAR     53  26  35 W13       29.76R
RUIDOSO        HVY SNOW  34  28  80 W17G26    29.83R WCI  23
SANTA FE       CLOUDY    30  25  81 S9        29.79F WCI  22
TRUTH OR CONSE CLEAR     39  12  33 W16G22    29.90R WCI  30
TUCUMCARI      CLEAR     49  30  48 W21G30    29.70R
$$



USA.gov is the U.S. government's official web portal to all federal, state and local government web resources and services.